,,Stat6,,Stat2,,Stat8,,Stat9,,Stat10,,Wind1,,Wind1,
time,status,PA1M_AVG,status,PR1M_SUM,status,RH1M_AVG,status,SR1M_AVG,status,TA1M_AVG,status,W1dAve1m,status,W1sAve1m,
2005-09-02, 00:00:01,VALID,917.104,VALID,0.2,VALID,100,VALID,-0.0509425,VALID,19.5703,VALID,23,VALID,0.435082,
2005-09-02, 00:01:01,VALID,917.127,VALID,0.2,VALID,100,VALID,0.0169808,VALID,19.5797,VALID,10,VALID,0.247396,
2005-09-02, 00:02:01,VALID,917.145,VALID,0.4,VALID,100,VALID,0,VALID,19.5797,VALID,7,VALID,0.771205,
2005-09-02, 00:03:01,VALID,917.146,VALID,0.4,VALID,100,VALID,-0.0339617,VALID,19.583,VALID,25,VALID,1.16864,
2005-09-02, 00:04:01,VALID,917.139,VALID,0.4,VALID,100,VALID,0,VALID,19.5763,VALID,29,VALID,1.07533,
2005-09-02, 00:05:01,VALID,917.126,VALID,0.4,VALID,100,VALID,0,VALID,19.5857,VALID,334,VALID,0.320676,
2005-09-02, 00:06:00,VALID,917.1,VALID,0.4,VALID,100,VALID,-0.0169808,VALID,19.5763,VALID,223,VALID,0.299851,
2005-09-02, 00:07:00,VALID,917.071,VALID,0.4,VALID,100,VALID,0,VALID,19.5862,VALID,174,VALID,0.242914,
2005-09-02, 00:08:00,VALID,917.058,VALID,0.2,VALID,100,VALID,0,VALID,19.5862,VALID,73,VALID,1.02416,
2005-09-02, 00:09:00,VALID,917.059,VALID,0.4,VALID,100,VALID,-0.0339617,VALID,19.5345,VALID,294,VALID,0.733285,
2005-09-02, 00:10:00,VALID,916.997,VALID,0.2,VALID,100,VALID,0,VALID,19.5149,VALID,34,VALID,1.17714,
2005-09-02, 00:11:00,VALID,917,VALID,0,VALID,100,VALID,0,VALID,19.5243,VALID,263,VALID,0.907812,
2005-09-02, 00:12:00,VALID,916.966,VALID,0.4,VALID,100,VALID,0,VALID,19.5147,VALID,191,VALID,0.204215,
2005-09-02, 00:13:00,VALID,916.979,VALID,0.2,VALID,100,VALID,0.0169808,VALID,19.4891,VALID,193,VALID,0.455793,
2005-09-02, 00:14:00,VALID,916.982,VALID,0.2,VALID,100,VALID,0,VALID,19.4791,VALID,94,VALID,0.967416,
2005-09-02, 00:15:00,VALID,916.944,VALID,0.2,VALID,100,VALID,0.0169808,VALID,19.463,VALID,351,VALID,0.914063,
2005-09-02, 00:16:00,VALID,916.938,VALID,0.4,VALID,100,VALID,-0.0169808,VALID,19.4369,VALID,339,VALID,0.941992,
2005-09-02, 00:17:00,VALID,916.969,VALID,0.2,VALID,100,VALID,0.0339617,VALID,19.4371,VALID,316,VALID,0.203125,
2005-09-02, 00:18:00,VALID,916.962,VALID,0.2,VALID,100,VALID,0.0169808,VALID,19.4496,VALID,332,VALID,0.573103,
2005-09-02, 00:19:00,VALID,916.938,VALID,0.2,VALID,100,VALID,0.0339617,VALID,19.4081,VALID,237,VALID,1.23047,
2005-09-02, 00:20:00,VALID,916.943,VALID,0.2,VALID,100,VALID,0.0169808,VALID,19.4046,VALID,250,VALID,0.500178,
2005-09-02, 00:21:00,VALID,916.915,VALID,0.2,VALID,100,VALID,0,VALID,19.4081,VALID,223,VALID,0.753018,
2005-09-02, 00:22:00,VALID,916.897,VALID,0.4,VALID,100,VALID,0,VALID,19.3922,VALID,229,VALID,0.902158,
2005-09-02, 00:23:00,VALID,916.916,VALID,0.2,VALID,100,VALID,-0.0169808,VALID,19.379,VALID,247,VALID,0.628534,
2005-09-02, 00:24:00,VALID,916.893,VALID,0.4,VALID,100,VALID,-0.0169808,VALID,19.376,VALID,287,VALID,0.44112,
2005-09-02, 00:25:00,VALID,916.886,VALID,0.2,VALID,100,VALID,0,VALID,19.376,VALID,67,VALID,0.383185,
2005-09-02, 00:26:00,VALID,916.852,VALID,0.2,VALID,100,VALID,0,VALID,19.379,VALID,205,VALID,0.982922,
2005-09-02, 00:27:00,VALID,916.848,VALID,0.4,VALID,100,VALID,-0.0169808,VALID,19.376,VALID,246,VALID,1.15469,
2005-09-02, 00:28:00,VALID,916.863,VALID,0.4,VALID,100,VALID,-0.0169808,VALID,19.3696,VALID,229,VALID,1.27958,
2005-09-02, 00:29:00,VALID,916.853,VALID,0.4,VALID,100,VALID,0,VALID,19.3629,VALID,221,VALID,0.851926,
2005-09-02, 00:30:00,VALID,916.863,VALID,0.6,VALID,100,VALID,-0.0169808,VALID,19.3629,VALID,229,VALID,1.04652,
2005-09-02, 00:31:00,VALID,916.854,VALID,0.8,VALID,100,VALID,-0.0509425,VALID,19.3636,VALID,266,VALID,0.669829,
2005-09-02, 00:32:00,VALID,916.852,VALID,0.6,VALID,100,VALID,-0.0509425,VALID,19.3668,VALID,241,VALID,1.13207,
2005-09-02, 00:33:00,VALID,916.842,VALID,0.6,VALID,100,VALID,-0.0849042,VALID,19.38,VALID,242,VALID,1.09073,
2005-09-02, 00:34:00,VALID,916.821,VALID,0.4,VALID,100,VALID,-0.0849042,VALID,19.3634,VALID,274,VALID,1.04167,
2005-09-02, 00:35:00,VALID,916.823,VALID,0.2,VALID,100,VALID,-0.101885,VALID,19.3835,VALID,265,VALID,0.672852,
2005-09-02, 00:36:00,VALID,916.804,VALID,0.4,VALID,100,VALID,-0.0679233,VALID,19.3666,VALID,253,VALID,1.10229,
2005-09-02, 00:37:00,VALID,916.787,VALID,0.4,VALID,100,VALID,-0.0679233,VALID,19.3763,VALID,251,VALID,0.998698,
2005-09-02, 00:38:00,VALID,916.763,VALID,0.6,VALID,100,VALID,-0.0679233,VALID,19.3726,VALID,244,VALID,1.2217,
2005-09-02, 00:39:00,VALID,916.768,VALID,0.6,VALID,100,VALID,-0.0509425,VALID,19.3668,VALID,273,VALID,0.936047,
2005-09-02, 00:40:00,VALID,916.749,VALID,0.4,VALID,100,VALID,-0.101885,VALID,19.3668,VALID,284,VALID,0.541466,
2005-09-02, 00:41:00,VALID,916.75,VALID,0.4,VALID,100,VALID,-0.0509425,VALID,19.3668,VALID,284,VALID,0.378729,
2005-09-02, 00:42:00,VALID,916.715,VALID,0.4,VALID,100,VALID,-0.0679233,VALID,19.377,VALID,284,VALID,0.0464939,
2005-09-02, 00:43:00,VALID,916.697,VALID,0.4,VALID,100,VALID,-0.0509425,VALID,19.3793,VALID,284,VALID,0.144097,
2005-09-02, 00:44:00,VALID,916.69,VALID,0.4,VALID,100,VALID,-0.101885,VALID,19.383,VALID,284,VALID,0.158558,
2005-09-02, 00:45:00,VALID,916.665,VALID,0.8,VALID,100,VALID,-0.0509425,VALID,19.3922,VALID,271,VALID,0.21766,
2005-09-02, 00:46:00,VALID,916.61,VALID,0.6,VALID,100,VALID,-0.0679233,VALID,19.3924,VALID,268,VALID,0.107922,
2005-09-02, 00:47:00,VALID,916.585,VALID,0.4,VALID,100,VALID,-0.0849042,VALID,19.3892,VALID,354,VALID,0.184152,
2005-09-02, 00:48:00,VALID,916.573,VALID,0.6,VALID,100,VALID,-0.0679233,VALID,19.3957,VALID,354,VALID,0.216751,
2005-09-02, 00:49:00,VALID,916.548,VALID,0.4,VALID,100,VALID,-0.101885,VALID,19.3986,VALID,354,VALID,0.562128,
2005-09-02, 00:50:00,VALID,916.546,VALID,0.4,VALID,100,VALID,-0.0679233,VALID,19.4063,VALID,354,VALID,0.272928,
2005-09-02, 00:51:00,VALID,916.548,VALID,0.6,VALID,100,VALID,-0.101885,VALID,19.3961,VALID,354,VALID,0.214334,
2005-09-02, 00:52:00,VALID,916.508,VALID,0.4,VALID,100,VALID,-0.101885,VALID,19.3932,VALID,354,VALID,0,
2005-09-02, 00:53:00,VALID,916.495,VALID,0.6,VALID,100,VALID,-0.101885,VALID,19.3929,VALID,354,VALID,0,
2005-09-02, 00:54:00,VALID,916.488,VALID,0.2,VALID,100,VALID,-0.101885,VALID,19.3832,VALID,354,VALID,0,
2005-09-02, 00:55:00,VALID,916.499,VALID,0.4,VALID,100,VALID,-0.0849042,VALID,19.3862,VALID,354,VALID,0,
2005-09-02, 00:56:00,VALID,916.487,VALID,0.4,VALID,100,VALID,-0.0849042,VALID,19.3899,VALID,354,VALID,0,
2005-09-02, 00:57:00,VALID,916.441,VALID,0.6,VALID,100,VALID,-0.0679233,VALID,19.3827,VALID,21,VALID,0.454368,
2005-09-02, 00:58:00,VALID,916.428,VALID,0.4,VALID,100,VALID,-0.101885,VALID,19.383,VALID,39,VALID,0.708891,
2005-09-02, 00:59:00,VALID,916.424,VALID,0.2,VALID,100,VALID,-0.0339617,VALID,19.3735,VALID,49,VALID,0.706659,
2005-09-02, 01:00:00,VALID,916.433,VALID,0.4,VALID,100,VALID,-0.0339617,VALID,19.3661,VALID,49,VALID,0.720526,
2005-09-02, 01:01:00,VALID,916.428,VALID,0.4,VALID,100,VALID,0.0169808,VALID,19.3654,VALID,49,VALID,0.748365,
2005-09-02, 01:02:00,VALID,916.428,VALID,0.2,VALID,100,VALID,0.0169808,VALID,19.3592,VALID,50,VALID,0.854288,
2005-09-02, 01:03:00,VALID,916.419,VALID,0.4,VALID,100,VALID,0,VALID,19.3433,VALID,58,VALID,0.78125,
2005-09-02, 01:04:00,VALID,916.416,VALID,0.2,VALID,100,VALID,0,VALID,19.3308,VALID,70,VALID,0.696646,
2005-09-02, 01:05:00,VALID,916.406,VALID,0.4,VALID,100,VALID,0.0169808,VALID,19.3139,VALID,87,VALID,0.596989,
2005-09-02, 01:06:00,VALID,916.397,VALID,0.2,VALID,100,VALID,-0.0169808,VALID,19.3234,VALID,104,VALID,0.574132,
2005-09-02, 01:07:00,VALID,916.394,VALID,0.4,VALID,100,VALID,0.0169808,VALID,19.3239,VALID,130,VALID,0.595526,
2005-09-02, 01:08:00,VALID,916.391,VALID,0.2,VALID,100,VALID,0,VALID,19.3303,VALID,149,VALID,0.619913,
2005-09-02, 01:09:00,VALID,916.397,VALID,0.2,VALID,100,VALID,0,VALID,19.3239,VALID,159,VALID,0.794922,
2005-09-02, 01:10:00,VALID,916.397,VALID,0.4,VALID,100,VALID,0.0509425,VALID,19.3433,VALID,164,VALID,0.560785,
2005-09-02, 01:11:00,VALID,916.395,VALID,0.2,VALID,100,VALID,0,VALID,19.3333,VALID,169,VALID,0.724414,
2005-09-02, 01:12:00,VALID,916.384,VALID,0.4,VALID,100,VALID,0,VALID,19.3435,VALID,162,VALID,0.407315,
2005-09-02, 01:13:00,VALID,916.36,VALID,0.2,VALID,100,VALID,0,VALID,19.3599,VALID,161,VALID,0.282203,
2005-09-02, 01:14:00,VALID,916.349,VALID,0.4,VALID,100,VALID,0,VALID,19.3626,VALID,152,VALID,0.513464,
2005-09-02, 01:15:00,VALID,916.33,VALID,0.2,VALID,100,VALID,0,VALID,19.3594,VALID,128,VALID,0.441964,
2005-09-02, 01:16:00,VALID,916.321,VALID,0.4,VALID,100,VALID,0,VALID,19.3562,VALID,129,VALID,0.403088,
2005-09-02, 01:17:00,VALID,916.309,VALID,0.2,VALID,100,VALID,0,VALID,19.343,VALID,129,VALID,0.478198,
2005-09-02, 01:18:00,VALID,916.302,VALID,0.4,VALID,100,VALID,0,VALID,19.3403,VALID,128,VALID,0.414444,
2005-09-02, 01:19:00,VALID,916.303,VALID,0.4,VALID,100,VALID,0,VALID,19.3534,VALID,128,VALID,0.44215,
2005-09-02, 01:20:00,VALID,916.284,VALID,0.6,VALID,100,VALID,0,VALID,19.3495,VALID,94,VALID,0.740091,
2005-09-02, 01:21:00,VALID,915.835,VALID,0.4,VALID,100,VALID,0.0339617,VALID,19.3522,VALID,67,VALID,0.946801,
2005-09-02, 01:22:00,VALID,916.263,VALID,0.2,VALID,100,VALID,0,VALID,19.3462,VALID,75,VALID,0.81392,
2005-09-02, 01:23:00,VALID,916.273,VALID,0.4,VALID,100,VALID,0,VALID,19.34,VALID,78,VALID,0.460938,
2005-09-02, 01:24:00,VALID,916.257,VALID,0.4,VALID,100,VALID,0,VALID,19.3562,VALID,59,VALID,0.61942,
2005-09-02, 01:25:00,VALID,916.224,VALID,0.4,VALID,100,VALID,0.0169808,VALID,19.3592,VALID,57,VALID,1.0968,
2005-09-02, 01:26:00,VALID,916.204,VALID,0.8,VALID,100,VALID,0,VALID,19.3366,VALID,61,VALID,1.35271,
2005-09-02, 01:27:00,VALID,916.144,VALID,0.4,VALID,100,VALID,0.0169808,VALID,19.3234,VALID,71,VALID,1.58648,
2005-09-02, 01:28:00,VALID,916.112,VALID,0.4,VALID,100,VALID,0,VALID,19.3276,VALID,77,VALID,1.36919,
2005-09-02, 01:29:00,VALID,916.111,VALID,0.2,VALID,100,VALID,0,VALID,19.3114,VALID,50,VALID,0.990141,
2005-09-02, 01:30:00,VALID,916.103,VALID,0.4,VALID,100,VALID,0.0509425,VALID,19.3075,VALID,58,VALID,1.35842,
2005-09-02, 01:31:00,VALID,916.096,VALID,0.2,VALID,100,VALID,0.0679233,VALID,19.3075,VALID,64,VALID,1.32333,
2005-09-02, 01:32:00,VALID,916.082,VALID,0.2,VALID,100,VALID,0.0509425,VALID,19.3107,VALID,61,VALID,1.0957,
2005-09-02, 01:33:00,VALID,916.051,VALID,0.2,VALID,100,VALID,0.0509425,VALID,19.3102,VALID,71,VALID,0.943824,
2005-09-02, 01:34:00,VALID,916.015,VALID,0.2,VALID,100,VALID,0.0339617,VALID,19.3008,VALID,77,VALID,0.822129,
2005-09-02, 01:35:00,VALID,915.993,VALID,0.2,VALID,100,VALID,0.0849042,VALID,19.2906,VALID,79,VALID,0.857813,
2005-09-02, 01:36:00,VALID,915.996,VALID,0.2,VALID,100,VALID,0.0849042,VALID,19.2782,VALID,106,VALID,1.1516,
2005-09-02, 01:37:00,VALID,915.988,VALID,0.2,VALID,100,VALID,0.0339617,VALID,19.2918,VALID,112,VALID,0.832986,
2005-09-02, 01:38:00,VALID,915.968,VALID,0,VALID,100,VALID,0.0169808,VALID,19.2913,VALID,99,VALID,0.53811,
2005-09-02, 01:39:00,VALID,915.982,VALID,0.2,VALID,100,VALID,0.0679233,VALID,19.2911,VALID,96,VALID,0.704055,
2005-09-02, 01:40:00,VALID,915.952,VALID,0,VALID,100,VALID,0.0509425,VALID,19.2849,VALID,96,VALID,0.562863,
2005-09-02, 01:41:00,VALID,915.944,VALID,0.2,VALID,100,VALID,0.0339617,VALID,19.2846,VALID,82,VALID,0.582889,
2005-09-02, 01:42:00,VALID,915.93,VALID,0,VALID,100,VALID,0.0679233,VALID,19.3043,VALID,67,VALID,0.670015,
2005-09-02, 01:43:00,VALID,915.942,VALID,0,VALID,100,VALID,0.0339617,VALID,19.2871,VALID,63,VALID,0.731517,
2005-09-02, 01:44:00,VALID,915.93,VALID,0,VALID,100,VALID,0.0509425,VALID,19.3142,VALID,54,VALID,0.775213,
2005-09-02, 01:45:00,VALID,915.915,VALID,0.2,VALID,100,VALID,0,VALID,19.3082,VALID,49,VALID,0.770486,
2005-09-02, 01:46:00,VALID,915.899,VALID,0,VALID,100,VALID,-0.0169808,VALID,19.2955,VALID,49,VALID,0.77255,
2005-09-02, 01:47:00,VALID,915.886,VALID,0,VALID,100,VALID,-0.0339617,VALID,19.3092,VALID,49,VALID,0.583891,
2005-09-02, 01:48:00,VALID,915.871,VALID,0,VALID,100,VALID,-0.0339617,VALID,19.2898,VALID,49,VALID,0.648628,
2005-09-02, 01:49:00,VALID,915.845,VALID,0,VALID,100,VALID,-0.0679233,VALID,19.2923,VALID,50,VALID,0.578488,
2005-09-02, 01:50:00,VALID,915.82,VALID,0,VALID,100,VALID,-0.0679233,VALID,19.2859,VALID,50,VALID,0.564453,
2005-09-02, 01:51:00,VALID,915.797,VALID,0,VALID,100,VALID,-0.0339617,VALID,19.2893,VALID,50,VALID,0.508176,
2005-09-02, 01:52:00,VALID,915.786,VALID,0.2,VALID,100,VALID,-0.0509425,VALID,19.2734,VALID,50,VALID,0.482422,
2005-09-02, 01:53:00,VALID,915.772,VALID,0,VALID,100,VALID,-0.0339617,VALID,19.2762,VALID,50,VALID,0.305859,
2005-09-02, 01:54:00,VALID,915.744,VALID,0,VALID,100,VALID,-0.0509425,VALID,19.2727,VALID,50,VALID,0.213728,
2005-09-02, 01:55:00,VALID,915.748,VALID,0,VALID,100,VALID,-0.0509425,VALID,19.2734,VALID,50,VALID,0.124637,
2005-09-02, 01:56:00,VALID,915.738,VALID,0,VALID,100,VALID,-0.0169808,VALID,19.267,VALID,50,VALID,0,
2005-09-02, 01:57:00,VALID,915.73,VALID,0,VALID,100,VALID,-0.0509425,VALID,19.2734,VALID,50,VALID,0,
2005-09-02, 01:58:00,VALID,915.729,VALID,0,VALID,100,VALID,-0.0339617,VALID,19.27,VALID,50,VALID,0,
2005-09-02, 01:59:00,VALID,915.736,VALID,0,VALID,100,VALID,-0.0509425,VALID,19.2799,VALID,50,VALID,0,
2005-09-02, 02:00:00,VALID,915.75,VALID,0,VALID,100,VALID,-0.0169808,VALID,19.2933,VALID,50,VALID,0.111506,
2005-09-02, 02:01:00,VALID,915.786,VALID,0,VALID,100,VALID,-0.0679233,VALID,19.2796,VALID,50,VALID,0.43657,
2005-09-02, 02:02:00,VALID,915.806,VALID,0,VALID,100,VALID,-0.0679233,VALID,19.2662,VALID,50,VALID,0.496189,
2005-09-02, 02:03:00,VALID,915.814,VALID,0,VALID,100,VALID,-0.0509425,VALID,19.2923,VALID,50,VALID,0.330966,
2005-09-02, 02:04:00,VALID,915.836,VALID,0.2,VALID,100,VALID,-0.0169808,VALID,19.2861,VALID,50,VALID,0.0295759,
2005-09-02, 02:05:00,VALID,915.808,VALID,0,VALID,100,VALID,-0.0509425,VALID,19.2958,VALID,50,VALID,0.181055,
2005-09-02, 02:06:00,VALID,915.841,VALID,0,VALID,100,VALID,-0.0169808,VALID,19.3278,VALID,50,VALID,0.0671875,
2005-09-02, 02:07:00,VALID,915.819,VALID,0,VALID,100,VALID,-0.0509425,VALID,19.3507,VALID,50,VALID,0,
2005-09-02, 02:08:00,VALID,915.809,VALID,0,VALID,100,VALID,-0.0509425,VALID,19.3795,VALID,50,VALID,0,
2005-09-02, 02:09:00,VALID,915.806,VALID,0,VALID,100,VALID,-0.0509425,VALID,19.38,VALID,50,VALID,0,
2005-09-02, 02:10:00,VALID,915.758,VALID,0,VALID,100,VALID,-0.0679233,VALID,19.3932,VALID,50,VALID,0.186166,
2005-09-02, 02:11:00,VALID,915.738,VALID,0,VALID,100,VALID,-0.101885,VALID,19.3835,VALID,50,VALID,0.429306,
2005-09-02, 02:12:00,VALID,915.718,VALID,0,VALID,100,VALID,-0.0509425,VALID,19.3865,VALID,50,VALID,0.296113,
2005-09-02, 02:13:00,VALID,915.704,VALID,0,VALID,100,VALID,-0.0849042,VALID,19.3795,VALID,50,VALID,0.169271,
2005-09-02, 02:14:00,VALID,915.694,VALID,0.2,VALID,100,VALID,-0.0849042,VALID,19.3641,VALID,50,VALID,0.345881,
2005-09-02, 02:15:00,VALID,915.707,VALID,0,VALID,100,VALID,0.0339617,VALID,19.3666,VALID,50,VALID,0.347842,
2005-09-02, 02:16:00,VALID,915.7,VALID,0,VALID,100,VALID,0.0339617,VALID,19.3497,VALID,48,VALID,0.467773,
2005-09-02, 02:17:00,VALID,915.683,VALID,0,VALID,100,VALID,0.0339617,VALID,19.3363,VALID,34,VALID,0.672805,
2005-09-02, 02:18:00,VALID,915.686,VALID,0.2,VALID,100,VALID,0.0339617,VALID,19.3529,VALID,32,VALID,0.792151,
2005-09-02, 02:19:00,VALID,915.677,VALID,0,VALID,100,VALID,0.0169808,VALID,19.3522,VALID,28,VALID,0.710938,
2005-09-02, 02:20:00,VALID,915.67,VALID,0,VALID,100,VALID,0.0169808,VALID,19.346,VALID,26,VALID,0.760417,
2005-09-02, 02:21:00,VALID,915.679,VALID,0,VALID,100,VALID,0.0509425,VALID,19.3726,VALID,26,VALID,0.715588,
2005-09-02, 02:22:00,VALID,915.681,VALID,0,VALID,100,VALID,0.0509425,VALID,19.3721,VALID,26,VALID,0.699836,
2005-09-02, 02:23:00,VALID,915.671,VALID,0.2,VALID,100,VALID,0.0339617,VALID,19.389,VALID,26,VALID,0.63058,
2005-09-02, 02:24:00,VALID,915.68,VALID,0,VALID,100,VALID,0.0169808,VALID,19.389,VALID,25,VALID,0.785417,
2005-09-02, 02:25:00,VALID,915.672,VALID,0,VALID,100,VALID,0.0169808,VALID,19.385,VALID,23,VALID,0.821801,
2005-09-02, 02:26:00,VALID,915.666,VALID,0,VALID,100,VALID,0,VALID,19.3659,VALID,337,VALID,0.87793,
2005-09-02, 02:27:00,VALID,915.667,VALID,0,VALID,100,VALID,0.0339617,VALID,19.3527,VALID,350,VALID,0.669567,
2005-09-02, 02:28:00,VALID,915.641,VALID,0,VALID,100,VALID,0.0169808,VALID,19.3497,VALID,358,VALID,0.500744,
2005-09-02, 02:29:00,VALID,915.644,VALID,0,VALID,100,VALID,0.0339617,VALID,19.3592,VALID,358,VALID,0.508743,
2005-09-02, 02:30:00,VALID,915.648,VALID,0,VALID,100,VALID,-0.0169808,VALID,19.3673,VALID,1,VALID,0.675037,
2005-09-02, 02:31:00,VALID,915.638,VALID,0,VALID,100,VALID,-0.0849042,VALID,19.3544,VALID,1,VALID,0.69931,
2005-09-02, 02:32:00,VALID,915.648,VALID,0.2,VALID,100,VALID,-0.0849042,VALID,19.3708,VALID,8,VALID,0.70585,
2005-09-02, 02:33:00,VALID,915.636,VALID,0,VALID,100,VALID,-0.0509425,VALID,19.3743,VALID,20,VALID,0.904576,
2005-09-02, 02:34:00,VALID,915.62,VALID,0.2,VALID,100,VALID,-0.101885,VALID,19.3872,VALID,29,VALID,1.02435,
2005-09-02, 02:35:00,VALID,915.636,VALID,0.4,VALID,100,VALID,-0.0339617,VALID,19.3865,VALID,17,VALID,0.934126,
2005-09-02, 02:36:00,VALID,915.646,VALID,0.4,VALID,100,VALID,-0.0679233,VALID,19.3604,VALID,347,VALID,0.372582,
2005-09-02, 02:37:00,VALID,915.658,VALID,0.2,VALID,100,VALID,-0.0509425,VALID,19.3539,VALID,347,VALID,0.180259,
2005-09-02, 02:38:00,VALID,915.667,VALID,0.4,VALID,100,VALID,-0.0849042,VALID,19.3571,VALID,347,VALID,0,
2005-09-02, 02:39:00,VALID,915.667,VALID,0.2,VALID,100,VALID,-0.0679233,VALID,19.3668,VALID,347,VALID,0.0369665,
2005-09-02, 02:40:00,VALID,915.675,VALID,0.2,VALID,100,VALID,-0.0509425,VALID,19.3668,VALID,348,VALID,0.440476,
2005-09-02, 02:41:00,VALID,915.66,VALID,0.4,VALID,100,VALID,-0.0679233,VALID,19.3698,VALID,12,VALID,1.09448,
2005-09-02, 02:42:00,VALID,915.633,VALID,0.4,VALID,100,VALID,-0.0679233,VALID,19.3604,VALID,13,VALID,1.50399,
2005-09-02, 02:43:00,VALID,915.638,VALID,0.2,VALID,100,VALID,-0.0169808,VALID,19.3509,VALID,5,VALID,0.937881,
2005-09-02, 02:44:00,VALID,915.607,VALID,0.4,VALID,100,VALID,-0.0339617,VALID,19.3316,VALID,28,VALID,1.20945,
2005-09-02, 02:45:00,VALID,915.583,VALID,0.2,VALID,100,VALID,-0.0679233,VALID,19.3246,VALID,30,VALID,1.29278,
2005-09-02, 02:46:00,VALID,915.583,VALID,0.2,VALID,100,VALID,-0.0849042,VALID,19.3221,VALID,33,VALID,1.49148,
2005-09-02, 02:47:00,VALID,915.596,VALID,0.4,VALID,100,VALID,-0.0849042,VALID,19.3154,VALID,26,VALID,1.20313,
2005-09-02, 02:48:00,VALID,915.605,VALID,0.4,VALID,100,VALID,-0.0509425,VALID,19.3219,VALID,21,VALID,0.557914,
2005-09-02, 02:49:00,VALID,915.605,VALID,0.2,VALID,100,VALID,-0.0679233,VALID,19.3251,VALID,6,VALID,0.447545,
2005-09-02, 02:50:00,VALID,915.602,VALID,0.2,VALID,100,VALID,-0.0679233,VALID,19.3186,VALID,342,VALID,0.917597,
2005-09-02, 02:51:00,VALID,915.621,VALID,0.2,VALID,100,VALID,-0.0849042,VALID,19.3122,VALID,330,VALID,0.868075,
2005-09-02, 02:52:00,VALID,915.642,VALID,0.2,VALID,100,VALID,-0.0509425,VALID,19.3055,VALID,343,VALID,0.748857,
2005-09-02, 02:53:00,VALID,915.652,VALID,0.2,VALID,100,VALID,-0.0849042,VALID,19.3224,VALID,3,VALID,0.906597,
2005-09-02, 02:54:00,VALID,915.659,VALID,0.2,VALID,100,VALID,-0.0509425,VALID,19.3057,VALID,359,VALID,1.03125,
2005-09-02, 02:55:00,VALID,915.655,VALID,0.4,VALID,100,VALID,-0.0509425,VALID,19.3089,VALID,355,VALID,0.785836,
2005-09-02, 02:56:00,VALID,915.656,VALID,0.2,VALID,100,VALID,-0.0679233,VALID,19.3025,VALID,316,VALID,0.661272,
2005-09-02, 02:57:00,VALID,915.657,VALID,0,VALID,100,VALID,-0.0509425,VALID,19.3221,VALID,312,VALID,0.282366,
2005-09-02, 02:58:00,VALID,915.65,VALID,0.2,VALID,100,VALID,-0.0509425,VALID,19.3447,VALID,303,VALID,0.486374,
2005-09-02, 02:59:00,VALID,915.637,VALID,0.2,VALID,100,VALID,-0.0679233,VALID,19.3412,VALID,10,VALID,0.53457,
2005-09-02, 03:00:00,VALID,915.635,VALID,0,VALID,100,VALID,0.0169808,VALID,19.3395,VALID,328,VALID,0.601758,
2005-09-02, 03:01:00,VALID,915.641,VALID,0.2,VALID,100,VALID,0.0509425,VALID,19.3361,VALID,351,VALID,0.610328,
2005-09-02, 03:02:00,VALID,915.64,VALID,0.2,VALID,100,VALID,0.0849042,VALID,19.3525,VALID,351,VALID,0.489524,
2005-09-02, 03:03:00,VALID,915.641,VALID,0,VALID,100,VALID,0.0679233,VALID,19.3363,VALID,357,VALID,0.589844,
2005-09-02, 03:04:00,VALID,915.625,VALID,0,VALID,100,VALID,0.0849042,VALID,19.3266,VALID,15,VALID,1.31309,
2005-09-02, 03:05:00,VALID,915.612,VALID,0.2,VALID,100,VALID,0.0339617,VALID,19.3403,VALID,359,VALID,0.966264,
2005-09-02, 03:06:00,VALID,915.601,VALID,0,VALID,100,VALID,0.0509425,VALID,19.3368,VALID,5,VALID,0.485283,
2005-09-02, 03:07:00,VALID,915.598,VALID,0.2,VALID,100,VALID,0.0509425,VALID,19.3199,VALID,15,VALID,0.79173,
2005-09-02, 03:08:00,VALID,915.588,VALID,0,VALID,100,VALID,0.0169808,VALID,19.3172,VALID,341,VALID,1.25763,
2005-09-02, 03:09:00,VALID,915.592,VALID,0.2,VALID,100,VALID,0.0339617,VALID,19.3082,VALID,4,VALID,1.05812,
2005-09-02, 03:10:00,VALID,915.602,VALID,0,VALID,100,VALID,0.0509425,VALID,19.2911,VALID,10,VALID,0.378125,
2005-09-02, 03:11:00,VALID,915.629,VALID,0.2,VALID,100,VALID,0.0509425,VALID,19.2916,VALID,262,VALID,0.482617,
2005-09-02, 03:12:00,VALID,915.648,VALID,0,VALID,100,VALID,0.0679233,VALID,19.2787,VALID,240,VALID,0.129542,
2005-09-02, 03:13:00,VALID,915.659,VALID,0.2,VALID,100,VALID,0.0339617,VALID,19.2787,VALID,240,VALID,0,
2005-09-02, 03:14:00,VALID,915.646,VALID,0.2,VALID,100,VALID,0.0849042,VALID,19.2814,VALID,240,VALID,0.220508,
2005-09-02, 03:15:00,VALID,915.623,VALID,0,VALID,100,VALID,-0.0169808,VALID,19.2891,VALID,240,VALID,0.271949,
2005-09-02, 03:16:00,VALID,915.557,VALID,0,VALID,100,VALID,-0.0679233,VALID,19.296,VALID,240,VALID,0.160056,
2005-09-02, 03:17:00,VALID,915.548,VALID,0.2,VALID,100,VALID,-0.0849042,VALID,19.2965,VALID,239,VALID,0.0889137,
2005-09-02, 03:18:00,VALID,915.554,VALID,0,VALID,100,VALID,-0.0339617,VALID,19.296,VALID,239,VALID,0.167969,
2005-09-02, 03:19:00,VALID,915.526,VALID,0,VALID,100,VALID,-0.101885,VALID,19.2993,VALID,241,VALID,0.575648,
2005-09-02, 03:20:00,VALID,915.501,VALID,0,VALID,100,VALID,-0.0679233,VALID,19.299,VALID,44,VALID,0.969494,
2005-09-02, 03:21:00,VALID,915.537,VALID,0.2,VALID,100,VALID,-0.0679233,VALID,19.2896,VALID,28,VALID,0.725074,
2005-09-02, 03:22:00,VALID,915.578,VALID,0,VALID,100,VALID,-0.101885,VALID,19.2868,VALID,339,VALID,0.721294,
2005-09-02, 03:23:00,VALID,915.589,VALID,0,VALID,100,VALID,-0.0679233,VALID,19.264,VALID,312,VALID,0.466518,
2005-09-02, 03:24:00,VALID,915.593,VALID,0,VALID,100,VALID,-0.0679233,VALID,19.2739,VALID,19,VALID,0.810138,
2005-09-02, 03:25:00,VALID,915.556,VALID,0,VALID,100,VALID,-0.0679233,VALID,19.2868,VALID,23,VALID,1.22294,
2005-09-02, 03:26:00,VALID,915.513,VALID,0,VALID,100,VALID,-0.101885,VALID,19.2767,VALID,26,VALID,1.44836,
2005-09-02, 03:27:00,VALID,915.528,VALID,0,VALID,100,VALID,-0.0169808,VALID,19.2935,VALID,30,VALID,0.97311,
2005-09-02, 03:28:00,VALID,915.522,VALID,0,VALID,100,VALID,-0.0849042,VALID,19.2866,VALID,30,VALID,0.507813,
2005-09-02, 03:29:00,VALID,915.536,VALID,0.2,VALID,100,VALID,-0.0849042,VALID,19.2831,VALID,28,VALID,0.602834,
2005-09-02, 03:30:00,VALID,915.537,VALID,0,VALID,100,VALID,-0.0679233,VALID,19.2901,VALID,25,VALID,0.404422,
2005-09-02, 03:31:00,VALID,915.537,VALID,0,VALID,100,VALID,-0.101885,VALID,19.267,VALID,21,VALID,0.784986,
2005-09-02, 03:32:00,VALID,915.567,VALID,0,VALID,100,VALID,-0.0509425,VALID,19.2645,VALID,359,VALID,0.828307,
2005-09-02, 03:33:00,VALID,915.574,VALID,0.2,VALID,100,VALID,-0.0849042,VALID,19.2575,VALID,324,VALID,0.578316,
2005-09-02, 03:34:00,VALID,915.566,VALID,0.2,VALID,100,VALID,-0.101885,VALID,19.2709,VALID,343,VALID,0.51029,
2005-09-02, 03:35:00,VALID,915.564,VALID,0,VALID,100,VALID,-0.0849042,VALID,19.2734,VALID,343,VALID,0.377976,
2005-09-02, 03:36:00,VALID,915.572,VALID,0.2,VALID,100,VALID,-0.0849042,VALID,19.2811,VALID,343,VALID,0.125953,
2005-09-02, 03:37:00,VALID,915.611,VALID,0,VALID,100,VALID,-0.0849042,VALID,19.257,VALID,343,VALID,0.1625,